Wind_Speed
21 22 22 22 21 21 20 20 20 20 20 19 20 20 19 18 16 15 13 14 12 14 13 12 12 12 13 15 16 16 23 22 6 10 9 13 10 11 10 4 2 6 1 12 11
20 21 21 21 21 21 21 21 21 21 20 20 20 20 19 21 21 20 19 15 13 13 13 13 12 8 12 15 14 16 22 25 21 24 23 15 12 10 13 12 1 5 2 14 12
16 16 14 14 16 17 17 17 17 18 19 19 20 20 19 19 19 21 20 20 16 12 12 10 8 10 13 14 15 19 24 25 28 25 22 19 19 15 14 12 11 13 7 14 18
13 12 11 10 10 10 10 10 12 13 14 15 17 17 18 16 5 12 14 17 15 15 13 10 11 13 15 14 14 20 21 22 24 24 24 23 20 20 16 16 14 11 10 15 16
11 11 11 11 11 10 10 10 10 10 10 11 12 13 14 15 13 25 22 20 19 16 11 11 13 14 16 16 17 20 21 21 22 24 23 22 22 22 21 18 15 8 9 17 22
12 12 12 11 11 10 10 11 11 11 11 11 11 11 12 9 15 25 25 20 19 19 16 12 14 14 19 21 22 22 24 26 25 25 25 24 24 22 21 20 18 14 14 16 20
14 13 12 12 11 11 10 11 12 12 12 11 11 11 10 8 15 21 19 15 17 19 16 13 15 19 20 23 22 23 26 23 24 25 25 22 22 20 18 17 21 20 15 14 18
15 14 13 12 12 12 12 12 13 12 11 11 10 10 7 12 15 16 13 11 10 10 13 18 18 19 20 22 25 27 28 32 25 23 21 16 22 15 13 16 18 19 20 15 19
14 14 13 13 13 12 12 13 12 10 8 7 7 6 4 11 7 8 7 9 12 16 16 14 16 21 19 22 25 22 28 26 24 18 18 16 19 21 17 15 17 17 14 15 20
15 14 13 13 13 12 12 11 10 9 5 4 3 2 8 5 12 8 7 10 10 13 13 15 15 17 19 20 27 24 25 27 28 24 26 23 21 19 16 21 18 20 23 25 23
14 14 13 12 12 12 11 9 9 7 7 7 10 9 8 10 6 6 5 4 8 11 12 14 17 18 18 20 25 30 31 33 31 29 30 31 30 25 25 24 24 23 24 25 25
16 16 14 11 11 11 9 8 7 8 11 8 8 6 10 4 3 6 10 1 5 8 10 14 20 19 21 21 23 25 29 33 32 28 28 30 33 30 29 28 27 26 24 23 24
16 16 15 12 12 10 10 9 8 9 11 7 6 7 6 4 3 5 6 5 9 12 13 18 19 18 19 22 24 26 29 30 31 29 28 30 36 34 30 26 27 28 25 25 22
17 16 16 15 12 11 9 8 7 7 4 6 5 2 3 5 8 8 5 7 7 11 13 17 14 14 17 21 20 26 24 27 29 30 34 26 27 30 26 27 27 15 17 23 24
19 18 16 15 13 11 9 6 4 3 4 5 4 9 4 5 7 8 7 6 9 10 13 16 16 17 18 20 20 26 23 25 27 31 34 32 27 32 23 25 23 21 23 25 26
20 18 16 13 12 10 8 4 1 0 3 1 3 3 5 10 6 9 10 14 7 8 13 19 14 16 21 15 17 20 23 24 25 28 24 31 30 32 30 26 27 27 22 16 21
20 18 15 13 12 8 5 2 5 7 1 2 1 6 9 7 9 9 8 9 10 10 13 16 12 9 8 13 14 20 24 22 20 18 16 27 28 27 25 22 21 10 6 6 7
19 17 15 12 10 6 1 4 6 4 3 4 9 10 8 4 6 7 9 10 6 6 14 11 15 14 16 19 23 21 20 19 18 16 20 35 21 22 24 24 12 18 8 4 7
20 19 15 8 7 5 2 6 8 6 5 8 11 8 6 4 4 8 7 9 7 7 9 15 19 21 18 20 19 22 21 23 27 30 28 27 29 11 18 12 13 17 8 10 16
17 16 11 10 7 3 4 9 10 7 9 8 10 5 10 5 8 5 7 3 7 6 11 16 27 20 18 18 17 18 22 23 17 10 11 19 28 15 17 7 24 14 15 12 18
16 10 16 12 9 5 8 8 7 9 8 4 7 8 9 9 8 9 8 9 4 7 13 17 16 21 20 17 21 20 18 12 11 10 7 5 13 11 18 21 23 20 15 20 17
13 3 19 14 8 6 8 5 11 10 9 7 8 9 10 11 10 11 11 7 9 13 15 12 16 21 24 20 14 10 6 14 9 13 21 14 25 24 22 27 35 28 27 10 27
14 12 10 9 6 9 9 11 12 9 9 9 9 7 9 9 11 7 9 10 12 13 10 14 16 24 19 18 7 20 19 16 18 15 20 2 20 22 37 32 29 38 40 39 11
13 5 7 8 9 12 12 12 13 12 11 12 13 12 12 13 12 15 14 14 14 12 15 18 13 19 23 24 26 29 26 24 21 15 29 25 25 12 24 21 23 37 32 30 10
6 3 9 7 6 9 9 11 14 12 12 9 10 11 13 15 15 15 15 16 14 14 16 15 20 21 25 27 28 30 30 28 27 29 32 28 10 11 16 14 16 22 19 38 16
8 8 10 12 14 16 16 16 15 13 15 17 18 14 14 12 14 18 17 15 16 17 18 15 23 23 29 26 26 30 30 30 30 24 31 15 9 15 10 14 15 17 16 18 11
8 11 12 12 11 13 14 14 14 14 13 14 17 17 15 13 15 17 19 21 23 22 20 19 21 22 29 23 25 26 15 17 20 24 13 18 8 10 18 20 22 18 15 14 9
Wind_Direction
300 298 294 293 293 293 292 291 290 288 284 280 276 270 266 265 266 264 268 267 263 262 261 265 277 288 291 289 281 288 291 291 341 341 323 343 3 352 350 296 61 43 340 344 350
300 299 294 288 288 291 292 290 287 283 279 277 276 276 276 273 273 270 272 277 277 276 277 277 283 277 263 272 278 276 274 284 300 298 311 334 327 318 329 327 84 271 137 358 335
306 310 307 298 295 294 293 291 287 284 280 278 276 277 276 278 286 276 264 265 266 266 267 273 246 255 263 274 269 268 271 284 292 301 309 307 304 289 313 312 336 215 292 320 333
315 321 321 317 312 311 315 309 299 291 289 285 281 278 274 272 281 268 264 266 270 271 261 243 239 249 262 271 274 270 275 281 288 292 294 288 288 286 284 288 308 287 257 301 313
325 330 330 329 324 325 326 321 316 313 306 301 296 285 277 270 267 265 263 266 269 266 263 238 240 251 258 270 278 275 279 282 284 288 285 285 277 274 276 275 286 258 249 285 286
324 328 330 327 321 320 321 317 315 310 302 299 299 294 278 270 245 267 272 266 261 263 265 245 245 256 264 270 272 279 282 282 284 284 285 280 278 272 270 267 269 243 247 259 277
319 321 324 326 321 320 321 320 316 307 301 299 293 287 279 235 248 268 282 272 255 257 255 251 253 258 265 269 276 278 283 283 283 284 282 277 273 275 278 264 255 252 220 239 254
319 319 321 321 321 320 319 322 320 311 303 296 292 289 265 281 274 280 276 277 284 234 237 228 230 253 261 272 273 276 277 280 283 280 280 251 270 274 277 272 274 247 230 235 238
323 321 323 323 320 321 321 323 321 313 303 295 295 287 353 300 316 304 295 270 243 250 263 264 259 261 267 268 277 273 269 274 280 277 277 256 264 280 270 271 269 259 250 245 238
328 324 328 327 323 325 322 318 318 317 315 336 339 347 313 244 274 289 281 256 230 246 253 258 265 265 260 259 262 276 282 284 290 288 291 289 270 273 265 273 274 258 257 249 250
330 329 330 328 323 322 323 322 318 315 314 279 237 254 273 293 301 340 321 305 236 243 254 248 261 260 266 263 271 274 277 280 282 282 285 283 283 272 272 270 269 261 254 249 245
336 334 336 332 327 326 331 328 330 296 300 294 251 256 270 276 37 300 332 45 272 256 270 265 258 266 267 270 276 279 280 281 284 284 279 275 275 272 269 269 265 265 261 251 245
338 335 332 335 331 330 331 337 330 319 310 278 252 240 261 287 261 205 301 267 268 273 272 269 278 283 278 276 280 277 280 284 287 287 280 279 276 273 269 267 264 256 251 249 242
336 337 337 337 332 330 330 330 324 321 315 202 272 275 263 283 286 236 262 280 274 273 282 277 288 285 284 281 285 285 288 289 287 287 283 281 283 277 275 266 264 235 247 243 239
336 336 335 335 334 329 322 320 313 314 284 175 230 261 232 229 276 267 265 309 276 283 284 279 286 288 288 287 291 289 294 290 288 286 285 281 274 275 269 271 267 252 256 248 244
334 332 330 326 323 324 325 330 341 331 235 213 232 313 308 262 286 262 296 280 283 289 296 289 284 287 305 283 294 297 295 287 283 280 270 276 270 273 271 275 270 259 262 227 251
328 329 326 323 319 319 335 358 333 248 335 170 248 303 298 261 275 264 294 279 254 306 320 319 305 317 321 302 300 309 309 301 290 276 281 279 268 266 274 273 278 201 146 241 166
329 326 324 321 315 319 331 37 263 286 284 315 307 304 271 293 282 264 291 279 243 272 318 335 319 342 315 311 301 298 295 287 289 287 291 295 295 282 297 289 274 250 251 223 183
326 323 316 318 322 316 245 248 293 340 317 309 311 284 233 271 281 289 288 280 297 338 337 313 303 311 308 302 294 302 291 298 301 287 282 279 286 335 303 279 325 281 276 232 219
327 324 323 332 320 287 265 260 298 284 303 300 294 285 283 305 295 285 302 303 278 303 320 311 305 310 311 308 295 284 291 307 297 323 324 312 312 30 4 314 259 283 296 156 150
328 349 279 316 315 274 250 270 273 291 299 289 278 276 284 282 277 287 283 298 307 299 316 316 306 308 313 306 310 321 331 352 324 291 312 250 286 340 352 346 275 292 295 298 218
318 315 291 292 285 275 270 275 260 278 281 298 281 280 276 273 279 281 272 279 325 321 316 311 313 307 308 301 287 307 338 324 299 286 284 294 287 302 317 318 305 286 264 284 268
313 295 263 305 253 275 272 279 272 266 265 271 263 277 271 268 280 268 276 277 305 310 309 324 311 307 316 323 203 326 309 299 294 296 288 118 296 277 312 309 321 289 285 300 293
330 327 278 297 291 284 288 282 286 270 271 264 261 261 267 270 268 275 278 284 292 288 293 316 295 296 295 298 301 303 298 288 275 274 274 242 267 294 310 304 314 330 279 244 281
345 255 281 269 265 258 271 276 277 275 267 276 264 268 268 274 273 277 281 282 274 285 296 297 290 293 290 290 290 292 290 286 286 281 281 293 288 285 330 327 332 322 323 235 259
286 270 231 269 286 282 282 278 275 274 266 272 269 276 269 281 270 285 284 281 280 282 286 287 288 293 290 293 285 284 287 282 277 280 273 309 13 348 310 316 300 312 302 304 286
234 278 281 276 282 275 277 275 272 271 266 266 270 269 262 269 282 279 275 277 279 280 280 279 283 292 289 292 289 283 349 314 334 302 337 329 340 321 320 304 290 292 284 274 261
Height
3180 3179 3177 3175 3174 3173 3172 3171 3170 3170 3169 3169 3168 3168 3168 3168 3168 3168 3168 3168 3168 3168 3169 3169 3170 3170 3170 3170 3171 3170 3167 3163 3165 3168 3158 3156 3156 3156 3156 3153 3153 3151 3152 3151 3150
3178 3176 3174 3172 3171 3170 3169 3167 3166 3165 3165 3164 3164 3164 3165 3164 3165 3165 3166 3166 3167 3168 3168 3168 3168 3169 3170 3171 3172 3171 3167 3162 3162 3156 3160 3157 3156 3157 3158 3158 3153 3151 3150 3150 3150
3176 3174 3171 3170 3168 3167 3166 3165 3163 3161 3161 3160 3160 3161 3161 3161 3162 3158 3162 3163 3164 3165 3166 3166 3168 3170 3171 3171 3171 3169 3165 3163 3159 3159 3159 3158 3158 3158 3157 3157 3156 3148 3148 3150 3151
3174 3172 3170 3169 3167 3165 3164 3162 3160 3159 3158 3157 3157 3157 3157 3158 3163 3155 3157 3159 3161 3163 3164 3165 3167 3169 3169 3169 3168 3167 3164 3163 3160 3158 3158 3157 3157 3157 3157 3158 3157 3151 3147 3149 3150
3172 3171 3169 3167 3166 3164 3162 3161 3159 3158 3157 3155 3155 3154 3155 3155 3157 3152 3155 3157 3158 3160 3161 3163 3165 3167 3168 3167 3166 3164 3162 3160 3159 3157 3155 3154 3154 3154 3155 3156 3156 3150 3147 3148 3148
3171 3169 3168 3166 3164 3163 3161 3159 3158 3156 3155 3154 3153 3152 3152 3154 3153 3149 3150 3153 3155 3156 3158 3161 3164 3166 3165 3164 3164 3162 3160 3157 3156 3154 3152 3151 3150 3150 3151 3152 3153 3150 3144 3145 3145
3170 3168 3166 3165 3163 3161 3160 3158 3157 3154 3153 3152 3151 3150 3150 3152 3150 3148 3147 3150 3151 3152 3155 3159 3162 3163 3162 3160 3160 3158 3156 3153 3152 3150 3147 3145 3145 3145 3145 3147 3148 3149 3144 3141 3143
3168 3166 3165 3163 3161 3159 3158 3156 3154 3152 3151 3150 3149 3148 3147 3147 3147 3147 3147 3147 3147 3152 3153 3155 3156 3157 3158 3157 3155 3154 3153 3148 3146 3144 3142 3141 3141 3142 3142 3142 3141 3142 3141 3139 3139
3166 3164 3163 3161 3159 3157 3155 3154 3152 3151 3149 3148 3148 3147 3149 3146 3146 3144 3145 3145 3147 3150 3150 3151 3153 3153 3154 3153 3151 3149 3144 3142 3139 3138 3137 3136 3136 3139 3139 3138 3138 3138 3139 3139 3136
3164 3162 3161 3159 3157 3155 3154 3153 3151 3149 3148 3147 3147 3149 3147 3149 3145 3144 3144 3144 3146 3149 3150 3150 3150 3149 3150 3150 3145 3143 3140 3137 3134 3134 3132 3130 3130 3132 3133 3134 3133 3134 3135 3135 3137
3163 3161 3160 3158 3155 3154 3153 3151 3151 3148 3146 3146 3147 3146 3147 3144 3143 3144 3142 3142 3143 3146 3146 3149 3149 3146 3145 3144 3142 3139 3137 3134 3133 3133 3131 3127 3126 3127 3128 3128 3128 3126 3128 3129 3130
3162 3160 3158 3156 3154 3152 3151 3149 3147 3147 3144 3143 3143 3143 3143 3143 3144 3144 3143 3145 3143 3144 3146 3147 3143 3142 3141 3140 3139 3137 3133 3130 3128 3128 3127 3124 3120 3121 3122 3121 3122 3121 3122 3122 3123
3161 3159 3156 3155 3153 3151 3149 3148 3146 3145 3143 3141 3142 3143 3145 3143 3145 3147 3144 3145 3145 3144 3144 3142 3140 3138 3137 3136 3135 3132 3129 3127 3124 3122 3120 3119 3113 3114 3114 3114 3114 3113 3114 3115 3117
3160 3157 3154 3152 3152 3149 3148 3147 3146 3144 3142 3144 3141 3143 3142 3143 3144 3143 3142 3143 3142 3142 3141 3139 3137 3136 3134 3133 3132 3127 3126 3122 3119 3117 3111 3115 3102 3105 3106 3105 3105 3106 3108 3109 3111
3157 3155 3152 3150 3149 3148 3149 3146 3145 3145 3142 3144 3143 3140 3141 3143 3144 3143 3140 3139 3139 3139 3140 3136 3134 3133 3132 3130 3129 3125 3124 3120 3117 3113 3109 3107 3105 3098 3099 3099 3099 3101 3101 3102 3103
3155 3153 3151 3150 3148 3147 3146 3146 3146 3148 3141 3142 3142 3142 3142 3142 3142 3141 3141 3137 3137 3137 3134 3132 3130 3129 3127 3126 3126 3123 3119 3115 3113 3108 3101 3100 3100 3095 3094 3096 3095 3095 3096 3093 3093
3154 3152 3150 3148 3147 3146 3145 3145 3148 3143 3141 3142 3142 3142 3141 3141 3140 3139 3139 3138 3137 3137 3133 3131 3127 3127 3126 3124 3122 3120 3116 3108 3103 3099 3091 3092 3090 3088 3091 3093 3093 3087 3088 3097 3095
3151 3149 3147 3146 3145 3144 3144 3146 3148 3140 3140 3140 3141 3140 3139 3139 3138 3138 3137 3135 3134 3135 3133 3129 3128 3126 3124 3124 3121 3118 3116 3112 3105 3099 3093 3090 3086 3089 3088 3088 3086 3091 3090 3097 3096
3148 3146 3145 3144 3143 3143 3144 3146 3142 3141 3141 3140 3139 3138 3136 3137 3138 3137 3135 3134 3133 3133 3135 3131 3127 3125 3123 3121 3119 3114 3112 3108 3100 3095 3087 3086 3085 3086 3087 3082 3092 3088 3090 3091 3092
3147 3144 3141 3142 3141 3141 3143 3142 3142 3140 3140 3140 3140 3138 3137 3136 3137 3135 3134 3133 3134 3134 3133 3131 3123 3123 3119 3117 3115 3112 3109 3102 3098 3096 3092 3091 3091 3088 3083 3084 3086 3086 3083 3074 3077
3145 3143 3141 3142 3141 3140 3141 3141 3141 3139 3138 3139 3138 3138 3138 3137 3136 3136 3134 3133 3131 3132 3131 3128 3124 3120 3117 3114 3110 3108 3105 3106 3105 3102 3103 3101 3093 3087 3087 3086 3076 3078 3083 3079 3081
3143 3145 3140 3140 3141 3141 3140 3139 3137 3138 3138 3137 3137 3137 3136 3136 3135 3134 3133 3133 3129 3130 3129 3127 3123 3118 3114 3110 3109 3109 3108 3106 3105 3101 3099 3099 3092 3091 3091 3089 3082 3079 3075 3056 3089
3140 3139 3140 3137 3138 3139 3139 3137 3136 3136 3136 3136 3136 3135 3135 3134 3135 3132 3131 3130 3130 3129 3125 3125 3122 3116 3110 3107 3105 3106 3106 3103 3100 3098 3097 3100 3089 3090 3088 3084 3077 3067 3073 3070 3078
3137 3139 3139 3137 3136 3136 3135 3135 3134 3133 3132 3132 3133 3132 3132 3131 3131 3129 3128 3128 3128 3127 3123 3123 3121 3118 3113 3110 3108 3104 3102 3099 3097 3094 3089 3091 3083 3088 3089 3083 3076 3067 3060 3069 3073
3135 3138 3137 3134 3135 3133 3133 3133 3132 3132 3130 3130 3130 3130 3129 3128 3127 3126 3125 3124 3124 3123 3121 3121 3117 3115 3110 3107 3105 3101 3097 3093 3090 3088 3084 3081 3080 3082 3084 3081 3074 3072 3063 3068 3071
3132 3132 3131 3130 3130 3130 3129 3129 3129 3128 3129 3128 3127 3127 3126 3125 3125 3123 3122 3121 3119 3118 3117 3117 3112 3110 3103 3102 3099 3094 3090 3087 3084 3083 3079 3076 3071 3078 3076 3080 3072 3073 3066 3061 3066
3127 3126 3125 3125 3126 3128 3127 3125 3125 3125 3124 3124 3124 3123 3123 3123 3120 3118 3116 3115 3114 3113 3112 3111 3109 3106 3098 3098 3093 3090 3086 3084 3079 3078 3073 3075 3075 3072 3074 3074 3070 3069 3069 3069 3067